Location: Hamilton
(43.2500°N, 79.8330°W)
Time: 07:10:51
(UTC-04:00)

Amateur Radio Satellites - All Passes

Search period start: 30 July 2016 06:40
Search period end: 31 July 2016 06:40
Location: Hamilton, 43.2500°N, 79.8330°W

Satellite Date Start Highest point End Downlink Frequencies (MHz)
Time Altitude Azimuth
Cosmos 2491 30 Jul 06:46:29 06:49:00 11° 52° (NE) 06:51:31 435.465 / 435.565
Cubesat XI-IV 30 Jul 06:53:44 06:58:12 27° 94° (E) 07:02:39 437.490
AIST 2 30 Jul 06:57:24 07:00:14 18° 249° (WSW) 07:03:04 435.215
CUBESAT XI-V 30 Jul 06:57:45 07:00:59 19° 268° (W) 07:04:14 437.345
CUTE-I 30 Jul 07:15:56 07:21:00 42° 98° (E) 07:26:01 437.470
LilacSat-2 30 Jul 07:16:00 07:19:40 40° 98° (E) 07:23:17 437.200
HORYU 2 30 Jul 07:21:06 07:24:55 28° 293° (WNW) 07:28:42 437.375
NOAA 15 30 Jul 07:25:08 07:30:23 67° 102° (ESE) 07:35:38 137.62
O/OREOS (USA 219) 30 Jul 07:26:14 07:30:00 26° 257° (WSW) 07:33:48 437.305
BRITE-PL 30 Jul 07:31:06 07:36:00 77° 285° (WNW) 07:41:19 437.365/2234.400
AO-7 30 Jul 07:33:19 07:39:02 21° 312° (NW) 07:44:45 29.400- 29.500
HO-68 30 Jul 07:39:04 07:40:53 11° 85° (E) 07:42:41 435.675
SO-50 30 Jul 07:45:27 07:50:05 45° 118° (ESE) 07:54:43 436.795
DOVE 4 30 Jul 07:52:46 07:57:43 42° 98° (E) 08:02:44 437.250
RS-15 30 Jul 07:56:08 08:07:41 78° 307° (NW) 08:19:55 29.354- 29.394
CANX-2 30 Jul 08:04:09 08:05:35 11° 89° (E) 08:07:01 2200.000
STRAND 1 30 Jul 08:07:14 08:12:18 57° 259° (W) 08:17:23 437.568
CUTE 1.7 + AOD 2 30 Jul 08:16:14 08:18:26 14° 90° (E) 08:20:37 437.475
GOMX 1 30 Jul 08:16:25 08:21:28 61° 286° (WNW) 08:26:46 467.674
YUBILEINY 30 Jul 08:16:35 08:20:54 15° 74° (ENE) 08:25:14 435.215
NOAA 18 30 Jul 08:20:01 08:25:28 58° 289° (WNW) 08:30:51 137.9125
PRISM 30 Jul 08:22:05 08:25:31 27° 68° (ENE) 08:28:58 437.425
Cubesat XI-IV 30 Jul 08:33:24 08:38:24 42° 292° (WNW) 08:43:23 437.490
Cosmos 2491 30 Jul 08:39:37 08:48:12 56° 76° (ENE) 08:56:47 435.465 / 435.565
SEEDS 30 Jul 08:48:19 08:51:35 22° 94° (E) 08:54:50 437.485
LilacSat-2 30 Jul 08:51:15 08:53:38 16° 295° (WNW) 08:56:01 437.200
COMPASS 1 30 Jul 08:54:04 08:56:55 18° 92° (E) 08:59:44 437.405
CUTE-I 30 Jul 08:56:24 09:00:50 27° 296° (WNW) 09:05:14 437.470
NOAA 15 30 Jul 09:06:10 09:09:37 18° 300° (WNW) 09:13:04 137.62
BRITE-PL 30 Jul 09:12:55 09:13:47 10° 300° (WNW) 09:14:40 437.365/2234.400
CINEMA 3 30 Jul 09:17:13 09:22:18 83° 104° (ESE) 09:27:15 145.822/145.860
AAUSAT CUBESAT 2 30 Jul 09:18:29 09:21:58 26° 95° (E) 09:25:25 437.432
HO-68 30 Jul 09:22:40 09:29:53 68° 104° (ESE) 09:37:01 435.675
FUNcube-1 30 Jul 09:24:28 09:26:07 12° 88° (E) 09:27:44 145.935
SO-50 30 Jul 09:26:32 09:30:44 28° 316° (NW) 09:34:57 436.795
ZACube-1 30 Jul 09:26:48 09:29:04 14° 89° (E) 09:31:18 437.345
DOVE 4 30 Jul 09:30:52 09:35:11 27° 294° (WNW) 09:39:34 437.250
ANTELSAT 30 Jul 09:32:46 09:35:43 17° 62° (ENE) 09:38:39 437.575/2403.000
UWE-3 30 Jul 09:32:50 09:36:37 25° 93° (E) 09:40:18 435.000/436.395/437.385
CANX-2 30 Jul 09:37:41 09:41:52 63° 285° (WNW) 09:46:00 2200.000
Cosmos 2504 30 Jul 09:44:40 09:50:32 20° 78° (ENE) 09:56:20 435.465 / 435.565
CUTE 1.7 + AOD 2 30 Jul 09:50:29 09:54:35 52° 287° (WNW) 09:58:40 437.475
PRISM 30 Jul 09:57:23 10:00:47 25° 264° (W) 10:04:11 437.425
Oscar 11 30 Jul 10:00:23 10:04:14 31° 96° (E) 10:08:02 145.826/435.025
CUBEBUG 2 30 Jul 10:01:37 10:06:20 73° 102° (ESE) 10:10:54 437.445
YUBILEINY 30 Jul 10:07:19 10:16:04 76° 95° (E) 10:24:54 435.215
TIGRISAT 30 Jul 10:11:48 10:16:03 36° 69° (ENE) 10:20:22 435.000
RS-15 30 Jul 10:12:09 10:22:30 33° 335° (NNW) 10:33:16 29.354- 29.394
SEEDS 30 Jul 10:23:37 10:27:20 32° 290° (WNW) 10:31:02 437.485
M-CUBED/EXP-1 PRIME 30 Jul 10:24:38 10:27:07 14° 95° (E) 10:29:35 437.505
COMPASS 1 30 Jul 10:28:47 10:32:38 39° 289° (WNW) 10:36:28 437.405
UNISAT 6 30 Jul 10:28:59 10:33:33 57° 73° (ENE) 10:38:11 437.425
Cosmos 2491 30 Jul 10:37:05 10:44:36 34° 276° (W) 10:52:09 435.465 / 435.565
AUBIESAT-1 30 Jul 10:46:59 10:50:22 20° 97° (E) 10:53:40 437.475
DELFI C3 30 Jul 10:47:05 10:50:52 42° 99° (E) 10:54:36 145.870
AAUSAT CUBESAT 2 30 Jul 10:53:56 10:57:24 26° 292° (WNW) 11:00:51 437.432
CINEMA 3 30 Jul 10:56:14 10:58:42 14° 300° (WNW) 11:01:10 145.822/145.860
NANOSAT C BR1 30 Jul 10:56:31 10:59:18 17° 64° (ENE) 11:02:05 145.865
FUNcube-1 30 Jul 10:58:24 11:02:52 67° 285° (WNW) 11:07:10 145.935
DUCHIFAT 1 30 Jul 10:59:04 11:01:50 17° 64° (ENE) 11:04:36 145.980
ZACube-1 30 Jul 11:01:21 11:05:46 59° 287° (WNW) 11:10:04 437.345
ANTELSAT 30 Jul 11:07:19 11:11:55 60° 259° (W) 11:16:36 437.575/2403.000
UWE-3 30 Jul 11:08:58 11:13:07 34° 291° (WNW) 11:17:09 435.000/436.395/437.385
HO-68 30 Jul 11:11:17 11:17:00 27° 303° (WNW) 11:22:43 435.675
QB50P1 30 Jul 11:19:52 11:23:36 31° 69° (ENE) 11:27:23 145.935-145.965
POPSAT HIP 1 30 Jul 11:26:30 11:30:23 35° 70° (ENE) 11:34:18 437.405
Cosmos 2504 30 Jul 11:33:49 11:42:44 90° 91° (E) 11:51:33 435.465 / 435.565
Oscar 11 30 Jul 11:36:42 11:40:14 25° 293° (WNW) 11:43:44 145.826/435.025
CUBEBUG 2 30 Jul 11:39:58 11:42:18 14° 300° (WNW) 11:44:36 437.445
ESTCUBE 1 30 Jul 11:43:26 11:46:08 16° 91° (E) 11:48:49 437.505/2401.250
HUMSAT D 30 Jul 11:45:15 11:49:27 87° 282° (WNW) 11:53:34 437.325/437.525
JAS-2 30 Jul 11:47:14 11:51:50 25° 65° (ENE) 11:56:09 435.910
QB50P2 30 Jul 11:47:58 11:52:11 66° 75° (ENE) 11:56:27 145.880/145.840
TIGRISAT 30 Jul 11:49:00 11:52:48 25° 266° (W) 11:56:40 435.000
POLYITAN 1 30 Jul 11:50:35 11:54:49 67° 74° (ENE) 11:59:06 437.675
M-CUBED/EXP-1 PRIME 30 Jul 11:57:20 12:02:02 70° 291° (WNW) 12:06:40 437.505
YUBILEINY 30 Jul 12:06:49 12:13:48 26° 296° (WNW) 12:20:52 435.215
UNISAT 6 30 Jul 12:07:47 12:10:38 16° 270° (W) 12:13:28 437.425
DX 1 30 Jul 12:17:47 12:20:10 14° 91° (E) 12:22:32 434.975-435.025
AUBIESAT-1 30 Jul 12:20:31 12:25:01 49° 294° (WNW) 12:29:26 437.475
DELFI C3 30 Jul 12:22:56 12:25:23 16° 295° (WNW) 12:27:48 145.870
UKube-1 30 Jul 12:24:56 12:27:01 13° 91° (E) 12:29:06 .
AISAT 30 Jul 12:29:27 12:33:19 28° 96° (E) 12:37:10 437.250
RS-15 30 Jul 12:30:10 12:40:06 27° 11° (N) 12:50:09 29.354- 29.394
NANOSAT C BR1 30 Jul 12:30:35 12:34:39 46° 261° (W) 12:38:48 145.865
BUGSAT 1 30 Jul 12:32:41 12:36:46 76° 74° (ENE) 12:40:57 437.445
DUCHIFAT 1 30 Jul 12:33:05 12:37:10 46° 261° (W) 12:41:17 145.980
50 SAT 30 Jul 12:46:13 12:49:38 39° 99° (E) 12:53:01 437.505
SPROUT 30 Jul 12:50:13 12:53:34 21° 94° (E) 12:56:54 437.525
QB50P1 30 Jul 12:55:55 12:59:23 24° 265° (W) 13:02:54 145.935-145.965
POPSAT HIP 1 30 Jul 13:03:01 13:06:16 21° 266° (W) 13:09:32 437.405
Oscar 19 30 Jul 13:11:43 13:16:23 37° 68° (ENE) 13:21:04 437.125/150
CUBEBUG 1 30 Jul 13:11:51 13:16:17 89° 103° (ESE) 13:20:43 437.445
AIST 1 30 Jul 13:17:19 13:21:18 41° 92° (E) 13:25:20
ESTCUBE 1 30 Jul 13:18:53 13:23:15 53° 288° (WNW) 13:27:37 437.505/2401.250
VELOX 1 30 Jul 13:20:07 13:24:35 89° 291° (WNW) 13:29:03 145.980
AO-85 30 Jul 13:20:09 13:25:14 44° 117° (ESE) 13:30:08 145.980
Gurwin Techsat 1B 30 Jul 13:22:05 13:26:09 23° 63° (ENE) 13:30:13 435.225
QB50P2 30 Jul 13:27:01 13:28:26 11° 271° (W) 13:29:52 145.880/145.840
POLYITAN 1 30 Jul 13:29:45 13:31:04 11° 271° (W) 13:32:25 437.675
Cosmos 2504 30 Jul 13:30:52 13:37:18 22° 298° (WNW) 13:43:42 435.465 / 435.565
JAS-2 30 Jul 13:31:08 13:36:45 46° 260° (W) 13:41:56 435.910
TISAT 1 30 Jul 13:33:14 13:35:38 15° 91° (E) 13:38:02 437.305
M-CUBED/EXP-1 PRIME 30 Jul 13:34:59 13:35:41 10° 308° (NW) 13:36:23 437.505
DX 1 30 Jul 13:52:23 13:56:41 55° 288° (WNW) 14:00:58 434.975-435.025
CUSAT 1 30 Jul 13:54:13 13:55:58 14° 74° (ENE) 13:57:55 437.405
UKube-1 30 Jul 13:59:09 14:03:26 59° 287° (WNW) 14:07:41 .
AISAT 30 Jul 14:05:53 14:09:44 29° 293° (WNW) 14:13:36 437.250
GONETS M04 30 Jul 14:19:11 14:25:21 22° 78° (ENE) 14:31:30
50 SAT 30 Jul 14:20:59 14:22:55 14° 295° (WNW) 14:24:52 437.505
SPROUT 30 Jul 14:25:39 14:29:36 35° 290° (WNW) 14:33:32 437.525
Cosmos 2499 30 Jul 14:26:40 14:32:03 18° 77° (ENE) 14:37:20 435.465 / 435.565
ITUPSAT 1 30 Jul 14:27:35 14:28:41 11° 88° (E) 14:29:48 437.325
SO-50 30 Jul 14:37:15 14:38:55 12° 30° (NNE) 14:40:35 436.795
RS-15 30 Jul 14:44:26 14:56:27 52° 43° (NE) 15:08:20 29.354- 29.394
AO-7 30 Jul 14:47:31 14:54:55 37° 58° (ENE) 15:02:20 29.400- 29.500
CUBEBUG 1 30 Jul 14:51:07 14:51:52 10° 301° (WNW) 14:52:37 437.445
DANDE 30 Jul 14:51:23 14:52:59 14° 74° (ENE) 14:54:42 436.750
Oscar 19 30 Jul 14:51:23 14:55:45 28° 265° (W) 15:00:10 437.125/150
ITAMSAT 1 30 Jul 14:53:37 14:58:38 49° 70° (ENE) 15:03:40 435.822/435.867
AIST 1 30 Jul 14:56:17 14:59:07 17° 290° (WNW) 15:01:58
VELOX 1 30 Jul 14:59:41 15:00:20 10° 301° (WNW) 15:01:00 145.980
Gurwin Techsat 1B 30 Jul 15:00:34 15:05:44 52° 260° (W) 15:10:57 435.225
AO-85 30 Jul 15:01:06 15:05:51 32° 314° (NW) 15:10:24 145.980
TISAT 1 30 Jul 15:07:27 15:11:35 51° 288° (WNW) 15:15:43 437.305
SWISSCUBE 30 Jul 15:15:57 15:20:25 39° 98° (E) 15:24:50 437.505
CUSAT 1 30 Jul 15:35:02 15:37:54 29° 263° (W) 15:41:24 437.405
BEESAT 30 Jul 15:36:45 15:41:27 57° 101° (E) 15:46:07 436.000
ITUPSAT 1 30 Jul 16:02:21 16:07:08 83° 285° (WNW) 16:11:53 437.325
GONETS M04 30 Jul 16:12:24 16:21:06 80° 279° (W) 16:29:53
Cosmos 2499 30 Jul 16:15:03 16:23:57 85° 96° (E) 16:32:33 435.465 / 435.565
SO-50 30 Jul 16:15:56 16:20:31 53° 51° (NE) 16:24:56 436.795
KKS-1 30 Jul 16:20:56 16:24:11 19° 93° (E) 16:27:26 437.445
DANDE 30 Jul 16:33:59 16:35:38 15° 265° (W) 16:37:24 436.750
ITAMSAT 1 30 Jul 16:34:23 16:38:22 22° 267° (W) 16:42:21 435.822/435.867
AO-7 30 Jul 16:39:09 16:47:20 57° 257° (WSW) 16:55:35 29.400- 29.500
HORYU 2 30 Jul 16:43:21 16:47:20 32° 68° (ENE) 16:51:20 437.375
STARS 30 Jul 16:49:23 16:52:36 19° 93° (E) 16:55:47 437.465
SWISSCUBE 30 Jul 16:54:11 16:58:00 24° 295° (WNW) 17:01:48 437.505
PHONESAT 2.4 30 Jul 16:54:19 16:57:07 32° 164° (SSE) 16:59:55 2401.200-2431.200
RS-15 30 Jul 16:57:20 17:09:16 58° 247° (WSW) 17:21:00 29.354- 29.394
CUTE-I 30 Jul 17:03:00 17:04:51 12° 56° (NE) 17:06:42 437.470
BRITE-PL 30 Jul 17:07:51 17:09:55 14° 62° (ENE) 17:12:00 437.365/2234.400
NOAA 15 30 Jul 17:09:04 17:12:21 17° 60° (ENE) 17:15:39 137.62
BEESAT 30 Jul 17:15:38 17:18:47 18° 298° (WNW) 17:21:55 436.000
CUBESAT XI-V 30 Jul 17:17:24 17:18:00 10° 88° (E) 17:18:36 437.345
MOZHAYETS 4 30 Jul 17:21:41 17:26:16 88° 284° (WNW) 17:30:50
ITUPSAT 1 30 Jul 17:43:06 17:44:10 11° 303° (WNW) 17:45:13 437.325
PCSat 30 Jul 17:44:20 17:44:57 10° 101° (E) 17:45:34 145.827
GOMX 1 30 Jul 17:49:47 17:52:35 17° 63° (ENE) 17:55:30 467.674
KKS-1 30 Jul 17:56:42 18:00:57 42° 289° (WNW) 18:05:11 437.445
SO-50 30 Jul 17:57:20 18:00:34 19° 250° (WSW) 18:03:43 436.795
LilacSat-2 30 Jul 17:59:10 18:02:21 24° 68° (ENE) 18:05:31 437.200
BEESAT 3 30 Jul 18:07:12 18:10:59 48° 118° (ESE) 18:14:48 437.485
NOAA 18 30 Jul 18:07:13 18:12:24 42° 67° (ENE) 18:17:37 137.9125
HO-68 30 Jul 18:10:12 18:12:44 12° 47° (NE) 18:15:16 435.675
Cosmos 2499 30 Jul 18:11:27 18:18:05 23° 296° (WNW) 18:24:34 435.465 / 435.565
GONETS M04 30 Jul 18:14:04 18:19:30 18° 302° (WNW) 18:24:59
Cubesat XI-IV 30 Jul 18:16:28 18:21:37 49° 70° (ENE) 18:26:47 437.490
HORYU 2 30 Jul 18:20:09 18:23:54 26° 265° (W) 18:27:41 437.375
BEESAT 2 30 Jul 18:21:14 18:24:51 36° 117° (ESE) 18:28:32 435.950
STARS 30 Jul 18:24:56 18:29:07 42° 290° (WNW) 18:33:18 437.465
PHONESAT 2.4 30 Jul 18:30:22 18:33:22 50° 181° (S) 18:36:22 2401.200-2431.200
CUTE-I 30 Jul 18:38:38 18:43:59 77° 74° (ENE) 18:49:23 437.470
BRITE-PL 30 Jul 18:43:52 18:47:55 56° 260° (W) 18:52:06 437.365/2234.400
NOAA 15 30 Jul 18:46:20 18:51:33 70° 257° (WSW) 18:56:49 137.62
CINEMA 3 30 Jul 18:46:48 18:47:45 11° 57° (ENE) 18:48:43 145.822/145.860
CUBESAT XI-V 30 Jul 18:51:20 18:55:57 82° 285° (WNW) 19:00:35 437.345
CANX-2 30 Jul 18:58:57 18:59:58 11° 61° (ENE) 19:01:00 2200.000
DOVE 4 30 Jul 18:59:32 19:03:38 41° 70° (ENE) 19:08:00 437.250
MOZHAYETS 4 30 Jul 19:01:53 19:02:41 10° 301° (WNW) 19:03:30
CUTE 1.7 + AOD 2 30 Jul 19:10:41 19:12:33 13° 62° (ENE) 19:14:24 437.475
RS-15 30 Jul 19:15:19 19:18:50 12° 269° (W) 19:22:21 29.354- 29.394
PCSat 30 Jul 19:21:59 19:27:23 78° 118° (ESE) 19:32:50 145.827
GOMX 1 30 Jul 19:26:15 19:30:18 46° 262° (W) 19:34:34 467.674
LilacSat-2 30 Jul 19:33:18 19:36:33 25° 265° (W) 19:39:51 437.200
ISS 30 Jul 19:36:34 19:38:00 12° 131° (SE) 19:39:27 145.825
SEEDS 30 Jul 19:41:24 19:44:22 19° 65° (ENE) 19:47:19 437.485
BEESAT 3 30 Jul 19:46:00 19:48:54 20° 317° (NW) 19:51:51 437.485
COMPASS 1 30 Jul 19:46:30 19:48:53 15° 64° (ENE) 19:51:16 437.405
NOAA 18 30 Jul 19:48:28 19:53:10 28° 265° (W) 19:57:55 137.9125
HO-68 30 Jul 19:51:57 19:58:55 56° 67° (ENE) 20:05:56 435.675
Cosmos 2491 30 Jul 19:53:49 19:55:23 11° 71° (ENE) 19:56:57 435.465 / 435.565
Cubesat XI-IV 30 Jul 19:57:43 20:01:55 23° 267° (W) 20:06:09 437.490
BEESAT 2 30 Jul 19:59:30 20:02:46 24° 315° (NW) 20:06:05 435.950
O/OREOS (USA 219) 30 Jul 20:00:13 20:04:06 30° 104° (ESE) 20:07:59 437.305
PHONESAT 2.4 30 Jul 20:06:51 20:09:35 29° 198° (SSW) 20:12:18 2401.200-2431.200
AAUSAT CUBESAT 2 30 Jul 20:10:01 20:13:08 21° 67° (ENE) 20:16:15 437.432
YUBILEINY 30 Jul 20:16:30 20:24:41 40° 71° (ENE) 20:32:47 435.215
STRAND 1 30 Jul 20:16:40 20:21:33 44° 99° (E) 20:26:24 437.568
CINEMA 3 30 Jul 20:19:23 20:23:59 82° 77° (ENE) 20:28:51 145.822/145.860
FUNcube-1 30 Jul 20:21:09 20:23:05 13° 60° (ENE) 20:25:01 145.935
CUTE-I 30 Jul 20:21:47 20:24:37 14° 271° (W) 20:27:28 437.470
ZACube-1 30 Jul 20:23:46 20:26:11 14° 61° (ENE) 20:28:36 437.345
UWE-3 30 Jul 20:30:36 20:34:19 24° 66° (ENE) 20:38:05 435.000/436.395/437.385
CANX-2 30 Jul 20:30:55 20:35:11 80° 258° (WSW) 20:39:29 2200.000
DOVE 4 30 Jul 20:38:24 20:41:35 19° 269° (W) 20:44:54 437.250
CUTE 1.7 + AOD 2 30 Jul 20:43:35 20:47:50 67° 259° (W) 20:52:06 437.475
AIST 2 30 Jul 20:54:19 20:58:24 73° 122° (ESE) 21:02:33 435.215
Oscar 11 30 Jul 20:56:07 20:59:49 28° 68° (ENE) 21:03:32 145.826/435.025
CUBEBUG 2 30 Jul 21:00:00 21:04:37 68° 74° (ENE) 21:09:20 437.445
PCSat 30 Jul 21:07:25 21:11:25 21° 318° (NW) 21:15:26 145.827
ISS 30 Jul 21:10:44 21:13:59 85° 327° (NNW) 21:17:15 145.825
M-CUBED/EXP-1 PRIME 30 Jul 21:11:44 21:14:32 18° 57° (ENE) 21:17:28 437.505
SEEDS 30 Jul 21:15:47 21:19:46 40° 262° (W) 21:23:47 437.485
COMPASS 1 30 Jul 21:19:57 21:24:01 52° 260° (W) 21:28:06 437.405
Cosmos 2504 30 Jul 21:26:34 21:33:51 35° 69° (ENE) 21:40:38 435.465 / 435.565
AUBIESAT-1 30 Jul 21:33:43 21:37:01 25° 60° (ENE) 21:40:31 437.475
DELFI C3 30 Jul 21:34:02 21:37:28 29° 70° (ENE) 21:40:55 145.870
PRISM 30 Jul 21:37:03 21:40:52 36° 98° (E) 21:44:41 437.425
O/OREOS (USA 219) 30 Jul 21:39:34 21:43:27 29° 302° (WNW) 21:47:22 437.305
HO-68 30 Jul 21:40:50 21:46:57 30° 265° (W) 21:53:08 435.675
Cosmos 2491 30 Jul 21:41:46 21:50:15 62° 92° (E) 21:58:48 435.465 / 435.565
AAUSAT CUBESAT 2 30 Jul 21:44:37 21:48:25 34° 263° (W) 21:52:14 437.432
AO-85 30 Jul 21:51:26 21:55:44 44° 50° (NE) 21:59:40 145.980
FUNcube-1 30 Jul 21:54:07 21:58:40 79° 258° (WSW) 22:03:17 145.935
STRAND 1 30 Jul 21:56:23 22:00:28 24° 296° (WNW) 22:04:31 437.568
ZACube-1 30 Jul 21:57:21 22:01:54 69° 259° (W) 22:06:29 437.345
CINEMA 3 30 Jul 22:00:48 22:01:49 11° 274° (W) 22:02:51 145.822/145.860
UWE-3 30 Jul 22:06:17 22:10:34 37° 263° (W) 22:14:56 435.000/436.395/437.385
YUBILEINY 30 Jul 22:13:17 22:21:38 49° 272° (W) 22:29:55 435.215
UNISAT 6 30 Jul 22:22:20 22:23:40 11° 88° (E) 22:24:59 437.425
Oscar 11 30 Jul 22:32:09 22:35:53 28° 265° (W) 22:39:39 145.826/435.025
AIST 2 30 Jul 22:34:45 22:37:23 16° 321° (NW) 22:40:01 435.215
HUMSAT D 30 Jul 22:36:51 22:41:09 73° 75° (ENE) 22:45:28 437.325/437.525
CUBEBUG 2 30 Jul 22:39:27 22:41:43 13° 272° (W) 22:44:00 437.445
ESTCUBE 1 30 Jul 22:44:10 22:47:07 17° 63° (ENE) 22:50:03 437.505/2401.250
M-CUBED/EXP-1 PRIME 30 Jul 22:44:58 22:48:40 44° 257° (WSW) 22:52:43 437.505
VELOX 1 30 Jul 22:46:04 22:46:45 10° 59° (ENE) 22:47:26 145.980
ISS 30 Jul 22:48:06 22:50:47 23° 346° (NNW) 22:53:28 145.825
ANTELSAT 30 Jul 22:58:31 23:02:26 27° 94° (E) 23:06:15 437.575/2403.000
AUBIESAT-1 30 Jul 23:07:52 23:11:20 30° 259° (W) 23:15:05 437.475
DELFI C3 30 Jul 23:09:11 23:12:20 22° 266° (W) 23:15:29 145.870
PRISM 30 Jul 23:12:57 23:15:56 20° 295° (WNW) 23:18:56 437.425
DX 1 30 Jul 23:14:37 23:17:07 15° 62° (ENE) 23:19:38 434.975-435.025
Cosmos 2504 30 Jul 23:19:50 23:27:28 48° 271° (W) 23:34:34 435.465 / 435.565
UKube-1 30 Jul 23:20:48 23:23:03 14° 61° (ENE) 23:25:17 .
AIST 1 30 Jul 23:24:33 23:26:29 13° 67° (ENE) 23:28:24
50 SAT 30 Jul 23:25:05 23:27:57 22° 68° (ENE) 23:30:48 437.505
AISAT 30 Jul 23:27:51 23:31:37 29° 67° (ENE) 23:35:24 437.250
AO-85 30 Jul 23:32:43 23:35:46 19° 250° (WSW) 23:38:40 145.980
POLYITAN 1 30 Jul 23:37:41 23:38:06 10° 88° (E) 23:38:33 437.675
TIGRISAT 30 Jul 23:38:32 23:43:08 67° 101° (E) 23:47:37 435.000
Cosmos 2491 30 Jul 23:40:11 23:47:39 31° 293° (WNW) 23:55:11 435.465 / 435.565
SPROUT 30 Jul 23:45:05 23:48:10 20° 65° (ENE) 23:51:17 437.525
UNISAT 6 30 Jul 23:56:19 00:00:57 76° 284° (WNW) 00:05:26 437.425
CUBEBUG 1 31 Jul 00:08:31 00:12:50 83° 75° (ENE) 00:17:11 437.445
NANOSAT C BR1 31 Jul 00:14:12 00:17:45 25° 95° (E) 00:21:15 145.865
BUGSAT 1 31 Jul 00:16:07 00:17:00 11° 89° (E) 00:17:53 437.445
DUCHIFAT 1 31 Jul 00:16:26 00:19:58 25° 95° (E) 00:23:28 145.980
HUMSAT D 31 Jul 00:16:26 00:17:15 10° 272° (W) 00:18:04 437.325/437.525
VELOX 1 31 Jul 00:18:07 00:22:30 89° 239° (WSW) 00:26:56 145.980
ESTCUBE 1 31 Jul 00:19:09 00:23:31 51° 260° (W) 00:27:54 437.505/2401.250
ISS 31 Jul 00:25:34 00:28:00 19° 7° (N) 00:30:28 145.825
TISAT 1 31 Jul 00:26:33 00:28:39 14° 62° (ENE) 00:30:45 437.305
GONETS M04 31 Jul 00:28:12 00:30:48 11° 52° (NE) 00:33:24
ANTELSAT 31 Jul 00:35:04 00:39:08 31° 292° (WNW) 00:43:06 437.575/2403.000
QB50P1 31 Jul 00:38:38 00:42:48 48° 99° (E) 00:46:56 145.935-145.965
JAS-2 31 Jul 00:38:39 00:42:26 19° 93° (E) 00:46:26 435.910
POPSAT HIP 1 31 Jul 00:45:27 00:49:43 57° 101° (E) 00:53:55 437.405
DX 1 31 Jul 00:48:36 00:52:52 56° 260° (W) 00:57:09 434.975-435.025
UKube-1 31 Jul 00:54:20 00:58:35 61° 258° (WSW) 01:02:52 .
50 SAT 31 Jul 00:58:25 01:01:28 25° 264° (W) 01:04:32 437.505
AIST 1 31 Jul 01:00:13 01:04:31 63° 265° (W) 01:08:51
AISAT 31 Jul 01:04:16 01:08:02 28° 264° (W) 01:11:50 437.250
QB50P2 31 Jul 01:07:28 01:11:47 76° 284° (WNW) 01:16:02 145.880/145.840
POLYITAN 1 31 Jul 01:10:07 01:14:25 74° 285° (WNW) 01:18:40 437.675
TIGRISAT 31 Jul 01:16:47 01:19:14 14° 299° (WNW) 01:21:39 435.000
SPROUT 31 Jul 01:19:48 01:23:50 40° 262° (W) 01:27:54 437.525
Oscar 19 31 Jul 01:24:19 01:25:56 11° 88° (E) 01:27:34 437.125/150
ITUPSAT 1 31 Jul 01:34:26 01:37:22 16° 61° (ENE) 01:40:17 437.325
BUGSAT 1 31 Jul 01:48:35 01:52:51 72° 285° (WNW) 01:57:05 437.445
NANOSAT C BR1 31 Jul 01:49:43 01:53:27 30° 292° (WNW) 01:57:10 145.865
DUCHIFAT 1 31 Jul 01:51:55 01:55:39 30° 291° (WNW) 01:59:23 145.980
TISAT 1 31 Jul 01:59:38 02:03:47 61° 259° (W) 02:08:00 437.305
ISS 31 Jul 02:01:52 02:05:01 45° 26° (NNE) 02:08:10 145.825
Cosmos 2499 31 Jul 02:06:33 02:13:16 31° 68° (ENE) 02:19:33 435.465 / 435.565
QB50P1 31 Jul 02:15:28 02:18:12 17° 296° (WNW) 02:20:56 145.935-145.965
GONETS M04 31 Jul 02:21:21 02:30:00 56° 76° (ENE) 02:38:38
JAS-2 31 Jul 02:22:35 02:27:52 60° 288° (WNW) 02:33:38 435.910
POPSAT HIP 1 31 Jul 02:22:38 02:25:01 15° 297° (WNW) 02:27:24 437.405
SWISSCUBE 31 Jul 02:23:10 02:27:48 51° 71° (ENE) 02:32:26 437.505
BEESAT 3 31 Jul 02:23:23 02:27:10 40° 50° (NE) 02:30:55 437.485
PCSat 31 Jul 02:26:40 02:29:59 16° 37° (NE) 02:33:17 145.827
BEESAT 2 31 Jul 02:38:05 02:41:43 32° 48° (NE) 02:45:21 435.950
BEESAT 31 Jul 02:43:53 02:48:39 74° 74° (ENE) 02:53:26 436.000
MOZHAYETS 4 31 Jul 02:50:35 02:52:18 12° 60° (ENE) 02:54:00
CUSAT 1 31 Jul 03:00:06 03:01:43 13° 94° (E) 03:03:11 437.405
Oscar 19 31 Jul 03:00:43 03:05:56 88° 288° (WNW) 03:11:08 437.125/150
ITAMSAT 1 31 Jul 03:06:42 03:09:45 16° 90° (E) 03:12:48 435.822/435.867
ITUPSAT 1 31 Jul 03:09:55 03:14:41 64° 258° (WSW) 03:19:28 437.325
Gurwin Techsat 1B 31 Jul 03:15:29 03:20:45 58° 101° (E) 03:25:58 435.225
KKS-1 31 Jul 03:20:06 03:23:27 21° 64° (ENE) 03:26:48 437.445
AIST 2 31 Jul 03:38:09 03:39:30 11° 34° (NE) 03:40:52 435.215
ISS 31 Jul 03:38:33 03:41:19 25° 224° (SW) 03:44:04 145.825
STARS 31 Jul 03:47:09 03:50:24 20° 64° (ENE) 03:53:39 437.465
Cosmos 2499 31 Jul 03:59:20 04:06:47 53° 270° (W) 04:13:43 435.465 / 435.565
DANDE 31 Jul 04:00:15 04:04:37 30° 97° (E) 04:08:03 436.750
BEESAT 3 31 Jul 04:01:41 04:04:34 19° 248° (WSW) 04:07:27 437.485
SWISSCUBE 31 Jul 04:02:35 04:05:52 18° 268° (W) 04:09:11 437.505
PCSat 31 Jul 04:08:52 04:14:19 76° 58° (ENE) 04:19:44 145.827
BEESAT 2 31 Jul 04:16:06 04:19:26 25° 246° (WSW) 04:22:45 435.950
GONETS M04 31 Jul 04:18:48 04:26:23 34° 276° (W) 04:34:01
CUBESAT XI-V 31 Jul 04:21:10 04:23:12 13° 60° (ENE) 04:25:14 437.345
MOZHAYETS 4 31 Jul 04:24:08 04:28:47 84° 257° (WSW) 04:33:26
BEESAT 31 Jul 04:24:56 04:26:57 12° 271° (W) 04:28:59 436.000
AO-7 31 Jul 04:39:25 04:47:25 48° 101° (E) 04:55:21 29.400- 29.500
CUSAT 1 31 Jul 04:40:34 04:43:35 25° 283° (WNW) 04:46:08 437.405
Oscar 19 31 Jul 04:42:13 04:44:29 13° 303° (WNW) 04:46:45 437.125/150
ITAMSAT 1 31 Jul 04:44:33 04:49:43 67° 287° (WNW) 04:54:50 435.822/435.867
KKS-1 31 Jul 04:55:34 04:59:45 40° 262° (W) 05:03:58 437.445
Gurwin Techsat 1B 31 Jul 04:56:25 05:00:15 21° 298° (WNW) 05:04:05 435.225
RS-15 31 Jul 05:12:51 05:21:00 23° 99° (E) 05:29:24 29.354- 29.394
AIST 2 31 Jul 05:14:39 05:18:49 65° 54° (NE) 05:22:58 435.215
STARS 31 Jul 05:22:19 05:26:28 41° 261° (W) 05:30:41 437.465
DANDE 31 Jul 05:43:39 05:47:17 21° 284° (WNW) 05:50:17 436.750
PCSat 31 Jul 05:53:56 05:57:02 16° 256° (WSW) 06:00:08 145.827
CUBESAT XI-V 31 Jul 05:55:21 05:59:58 76° 258° (WSW) 06:04:35 437.345
STRAND 1 31 Jul 05:59:35 06:00:14 10° 55° (NE) 06:00:53 437.568
O/OREOS (USA 219) 31 Jul 06:08:23 06:12:56 70° 65° (ENE) 06:17:29 437.305
HORYU 2 31 Jul 06:09:04 06:13:28 54° 101° (E) 06:17:49 437.375
NOAA 18 31 Jul 06:29:25 06:32:41 16° 90° (E) 06:35:56 137.9125
SO-50 31 Jul 06:33:12 06:35:37 14° 108° (ESE) 06:38:01 436.795
Cubesat XI-IV 31 Jul 06:33:41 06:37:11 17° 91° (E) 06:40:40 437.490
